KB0BDN-13 Weather Reports


time (UTC)temp
C
wind
direction
speed
KPH
gust
KPH
rain 1hr
cm
rain 24hr
cm
rain mn
cm
humidity
%
barometer
mb
20260503030206 6 182 0.0 0.0 0.00 0.00 0.00 49 1002.5
20260503024706 6 182 0.0 4.8 0.00 0.00 0.00 48 1002.5
20260503023206 6 182 0.0 1.6 0.00 0.00 0.00 49 1002.6
20260503021706 6 182 0.0 1.6 0.00 0.00 0.00 49 1002.6
20260503020206 6 182 0.0 0.0 0.00 0.00 0.00 50 1003.0
20260503014706 7 182 0.0 4.8 0.00 0.00 0.00 48 1002.8
20260503013206 7 182 0.0 0.0 0.00 0.00 0.00 47 1002.8
20260503011706 7 182 0.0 9.7 0.00 0.00 0.00 47 1002.6
20260503010206 8 182 0.0 1.6 0.00 0.00 0.00 46 1002.7
20260503004706 8 182 1.6 6.4 0.00 0.00 0.00 46 1002.7
20260503003206 8 182 0.0 0.0 0.00 0.00 0.00 45 1003.1
20260503001706 9 182 6.4 8.0 0.00 0.00 0.00 44 1003.2
20260503000206 9 182 0.0 8.0 0.00 0.00 0.00 43 1003.3
20260502234706 10 182 0.0 6.4 0.00 0.00 0.00 43 1003.6
20260502233206 10 182 0.0 6.4 0.00 0.00 0.00 43 1003.8
20260502231706 10 182 0.0 9.7 0.00 0.00 0.00 44 1003.9
20260502230206 10 182 0.0 3.2 0.00 0.00 0.00 42 1004.0
20260502224706 10 173 1.6 12.9 0.00 0.00 0.00 42 1004.2
20260502223206 10 173 0.0 9.7 0.00 0.00 0.00 40 1004.3
20260502221706 11 167 0.0 9.7 0.00 0.00 0.00 38 1004.3
20260502220205 12 165 9.7 9.7 0.00 0.00 0.00 38 1004.2
20260502214704 12 171 0.0 16.1 0.00 0.00 0.00 36 1004.4
20260502213204 12 257 3.2 4.8 0.00 0.00 0.00 36 1004.5
20260502211704 12 277 0.0 11.3 0.00 0.00 0.00 36 1004.7
20260502210204 13 280 0.0 4.8 0.00 0.00 0.00 32 1005.0
20260502204704 13 286 0.0 14.5 0.00 0.00 0.00 30 1005.1
20260502203204 13 279 9.7 14.5 0.00 0.00 0.00 31 1005.3
20260502201704 12 267 0.0 16.1 0.00 0.00 0.00 32 1005.7
20260502200203 12 232 3.2 16.1 0.00 0.00 0.00 31 1005.8
20260502194704 13 252 3.2 14.5 0.00 0.00 0.00 31 1006.0
20260502193203 13 262 3.2 6.4 0.00 0.00 0.00 32 1006.2
20260502191703 13 250 1.6 11.3 0.00 0.00 0.00 32 1006.4
20260502190203 12 249 1.6 4.8 0.00 0.00 0.00 32 1006.8
20260502184703 12 261 4.8 12.9 0.00 0.00 0.00 33 1006.9
20260502183203 12 257 0.0 3.2 0.00 0.00 0.00 34 1007.1
20260502181703 11 247 8.0 12.9 0.00 0.00 0.00 33 1007.5
20260502180203 11 263 0.0 9.7 0.00 0.00 0.00 34 1007.7
20260502170203 10 314 4.8 8.0 0.00 0.00 0.00 35 1008.8
20260502163203 10 323 4.8 9.7 0.00 0.00 0.00 37 1009.3
20260502161703 10 326 0.0 12.9 0.00 0.00 0.00 37 1009.4
20260502160203 9 327 0.0 12.9 0.00 0.00 0.00 38 1009.8
20260502151703 9 326 0.0 11.3 0.00 0.00 0.00 38 1010.3
20260502150203 8 328 8.0 9.7 0.00 0.00 0.00 39 1010.6
20260502130203 1 355 0.0 0.0 0.00 0.00 0.00 76 1011.4
20260502123203 -1 355 0.0 0.0 0.00 0.00 0.00 96 1011.5
20260502121703 -3 355 0.0 0.0 0.00 0.00 0.00 95 1011.6
20260502120203 -5 355 0.0 0.0 0.00 0.00 0.00 95 1011.6
20260502114703 -6 355 0.0 0.0 0.00 0.00 0.00 94 1011.6
20260502113203 -6 355 0.0 0.0 0.00 0.00 0.00 94 1011.7
20260502111703 -6 355 0.0 0.0 0.00 0.00 0.00 94 1011.7
20260502110203 -7 355 0.0 0.0 0.00 0.00 0.00 94 1011.5
20260502104703 -6 355 0.0 0.0 0.00 0.00 0.00 94 1011.7
20260502103203 -6 355 0.0 0.0 0.00 0.00 0.00 94 1011.8
20260502101703 -6 355 0.0 0.0 0.00 0.00 0.00 94 1011.8
20260502100203 -7 355 0.0 0.0 0.00 0.00 0.00 93 1011.9
20260502090203 -6 355 0.0 0.0 0.00 0.00 0.00 93 1012.0
20260502070202 -5 355 0.0 0.0 0.00 0.00 0.00 92 1012.4
20260502064702 -5 355 0.0 0.0 0.00 0.00 0.00 92 1012.5
20260502063202 -5 355 0.0 0.0 0.00 0.00 0.00 91 1012.6
20260502061702 -5 355 0.0 0.0 0.00 0.00 0.00 91 1012.6
20260502060202 -5 355 0.0 0.0 0.00 0.00 0.00 91 1012.7
20260502054702 -5 355 0.0 0.0 0.00 0.00 0.00 91 1012.7
20260502053202 -5 355 0.0 0.0 0.00 0.00 0.00 90 1012.8
20260502051702 -4 355 0.0 0.0 0.00 0.00 0.00 89 1012.8
20260502050202 -4 355 0.0 0.0 0.00 0.00 0.00 89 1012.9
20260502044702 -4 355 0.0 0.0 0.00 0.00 0.00 88 1012.9
20260502043202 -3 355 0.0 0.0 0.00 0.00 0.00 87 1012.9
20260502041702 -3 355 0.0 0.0 0.00 0.00 0.00 86 1012.9
20260502040202 -3 355 0.0 0.0 0.00 0.00 0.00 85 1012.9
20260502034702 -3 355 0.0 0.0 0.00 0.00 0.00 84 1012.9
20260502033202 -2 355 0.0 0.0 0.00 0.00 0.00 83 1012.9
20260502031702 -2 355 0.0 0.0 0.00 0.00 0.00 81 1012.9